TimeAKDT,TemperatureF,Dew PointF,Humidity,Sea Level PressureIn,VisibilityMPH,Wind Direction,Wind SpeedMPH,Gust SpeedMPH,PrecipitationIn,Events,Conditions,WindDirDegrees,DateUTC
12:16 AM,60.8,53.6,77,30.09,10.0,Calm,Calm,-,N/A,,Clear,0,2013-07-30 08:16:00
12:36 AM,60.8,51.8,72,30.09,10.0,WNW,4.6,-,N/A,,Clear,300,2013-07-30 08:36:00
12:56 AM,59.0,51.8,77,30.09,10.0,Calm,Calm,-,N/A,,Clear,0,2013-07-30 08:56:00
1:16 AM,57.2,50.0,77,30.09,10.0,Calm,Calm,-,N/A,,Clear,0,2013-07-30 09:16:00
1:36 AM,57.2,50.0,77,30.10,10.0,Calm,Calm,-,N/A,,Clear,0,2013-07-30 09:36:00
1:56 AM,57.2,51.8,82,30.10,10.0,West,3.5,-,N/A,,Clear,260,2013-07-30 09:56:00
2:16 AM,57.2,51.8,82,30.10,10.0,Calm,Calm,-,N/A,,Clear,0,2013-07-30 10:16:00
2:36 AM,57.2,51.8,82,30.10,10.0,Calm,Calm,-,N/A,,Clear,0,2013-07-30 10:36:00
2:56 AM,57.2,50.0,77,30.11,10.0,Calm,Calm,-,N/A,,Clear,0,2013-07-30 10:56:00
3:16 AM,57.2,50.0,77,30.11,10.0,Calm,Calm,-,N/A,,Clear,0,2013-07-30 11:16:00
3:36 AM,55.4,48.2,77,30.11,10.0,Calm,Calm,-,N/A,,Clear,0,2013-07-30 11:36:00
3:56 AM,55.4,48.2,77,30.12,10.0,Calm,Calm,-,N/A,,Clear,0,2013-07-30 11:56:00
4:16 AM,55.4,48.2,77,30.12,10.0,Calm,Calm,-,N/A,,Clear,0,2013-07-30 12:16:00
4:36 AM,53.6,48.2,82,30.12,10.0,Calm,Calm,-,N/A,,Clear,0,2013-07-30 12:36:00
4:56 AM,55.4,48.2,77,30.13,10.0,SW,3.5,-,N/A,,Clear,220,2013-07-30 12:56:00
5:16 AM,55.4,48.2,77,30.13,10.0,Calm,Calm,-,N/A,,Clear,0,2013-07-30 13:16:00
5:36 AM,53.6,48.2,82,30.13,10.0,Calm,Calm,-,N/A,,Clear,0,2013-07-30 13:36:00
5:56 AM,55.4,48.2,77,30.14,10.0,Calm,Calm,-,N/A,,Clear,0,2013-07-30 13:56:00
6:16 AM,55.4,50.0,82,30.14,10.0,Calm,Calm,-,N/A,,Clear,0,2013-07-30 14:16:00
6:36 AM,55.4,50.0,82,30.14,10.0,Calm,Calm,-,N/A,,Clear,0,2013-07-30 14:36:00
6:56 AM,55.4,50.0,82,30.14,10.0,Calm,Calm,-,N/A,,Clear,0,2013-07-30 14:56:00
7:16 AM,57.2,48.2,72,30.15,10.0,Calm,Calm,-,N/A,,Clear,0,2013-07-30 15:16:00
7:36 AM,57.2,48.2,72,30.15,10.0,Calm,Calm,-,N/A,,Clear,0,2013-07-30 15:36:00
7:56 AM,57.2,50.0,77,30.15,10.0,NW,3.5,-,N/A,,Clear,310,2013-07-30 15:56:00
8:16 AM,57.2,50.0,77,30.15,10.0,NW,4.6,-,N/A,,Clear,320,2013-07-30 16:16:00
8:36 AM,60.8,51.8,72,30.15,10.0,NW,3.5,-,N/A,,Clear,320,2013-07-30 16:36:00
8:56 AM,60.8,51.8,72,30.15,10.0,NW,3.5,-,N/A,,Clear,320,2013-07-30 16:56:00
9:16 AM,62.6,51.8,68,30.15,10.0,NW,5.8,-,N/A,,Clear,320,2013-07-30 17:16:00
9:36 AM,62.6,51.8,68,30.16,10.0,NW,3.5,-,N/A,,Clear,310,2013-07-30 17:36:00
9:56 AM,64.4,53.6,68,30.15,10.0,NW,4.6,-,N/A,,Clear,310,2013-07-30 17:56:00
10:16 AM,64.4,53.6,68,30.16,10.0,NW,3.5,-,N/A,,Clear,320,2013-07-30 18:16:00
10:36 AM,66.2,53.6,64,30.15,10.0,NW,5.8,-,N/A,,Clear,320,2013-07-30 18:36:00
10:56 AM,68.0,53.6,60,30.15,10.0,WNW,4.6,-,N/A,,Clear,300,2013-07-30 18:56:00
11:16 AM,66.2,55.4,68,30.15,10.0,NNW,4.6,-,N/A,,Clear,330,2013-07-30 19:16:00
11:36 AM,66.2,55.4,68,30.15,10.0,Calm,Calm,-,N/A,,Clear,0,2013-07-30 19:36:00
11:56 AM,69.8,55.4,60,30.15,10.0,NNW,3.5,-,N/A,,Clear,330,2013-07-30 19:56:00
12:16 PM,71.6,55.4,57,30.15,10.0,NNW,4.6,-,N/A,,Clear,330,2013-07-30 20:16:00
12:36 PM,73.4,55.4,53,30.15,10.0,Calm,Calm,-,N/A,,Clear,0,2013-07-30 20:36:00
12:56 PM,68.0,55.4,64,30.15,10.0,NW,4.6,-,N/A,,Clear,310,2013-07-30 20:56:00
1:16 PM,71.6,57.2,60,30.15,10.0,NW,3.5,-,N/A,,Clear,320,2013-07-30 21:16:00
1:36 PM,73.4,57.2,57,30.15,10.0,NW,5.8,-,N/A,,Clear,320,2013-07-30 21:36:00
1:56 PM,75.2,55.4,50,30.14,10.0,NNW,5.8,-,N/A,,Clear,330,2013-07-30 21:56:00
2:16 PM,73.4,57.2,57,30.14,10.0,NNW,4.6,-,N/A,,Clear,330,2013-07-30 22:16:00
2:36 PM,78.8,51.8,39,30.13,10.0,West,5.8,-,N/A,,Clear,270,2013-07-30 22:36:00
2:56 PM,78.8,51.8,39,30.13,10.0,NW,6.9,-,N/A,,Clear,310,2013-07-30 22:56:00
3:16 PM,78.8,51.8,39,30.13,10.0,West,4.6,-,N/A,,Clear,270,2013-07-30 23:16:00
3:36 PM,78.8,53.6,42,30.13,10.0,WNW,5.8,-,N/A,,Clear,300,2013-07-30 23:36:00
3:56 PM,78.8,51.8,39,30.12,10.0,West,6.9,-,N/A,,Clear,280,2013-07-30 23:56:00
4:16 PM,78.8,51.8,39,30.12,10.0,West,6.9,-,N/A,,Clear,260,2013-07-31 00:16:00
4:36 PM,78.8,53.6,42,30.12,10.0,WSW,8.1,-,N/A,,Clear,250,2013-07-31 00:36:00
4:56 PM,77.0,57.2,50,30.12,10.0,WNW,8.1,-,N/A,,Clear,290,2013-07-31 00:56:00
5:16 PM,77.0,55.4,47,30.11,10.0,West,8.1,-,N/A,,Clear,270,2013-07-31 01:16:00
5:36 PM,77.0,55.4,47,30.11,10.0,WNW,6.9,-,N/A,,Clear,300,2013-07-31 01:36:00
5:56 PM,75.2,55.4,50,30.11,10.0,NW,5.8,-,N/A,,Clear,310,2013-07-31 01:56:00
6:16 PM,75.2,55.4,50,30.11,10.0,West,8.1,-,N/A,,Clear,280,2013-07-31 02:16:00
6:36 PM,75.2,55.4,50,30.11,10.0,West,5.8,-,N/A,,Clear,270,2013-07-31 02:36:00
6:56 PM,75.2,57.2,53,30.11,10.0,NW,3.5,-,N/A,,Clear,310,2013-07-31 02:56:00
7:16 PM,71.6,55.4,57,30.11,10.0,NW,4.6,-,N/A,,Clear,320,2013-07-31 03:16:00
7:36 PM,71.6,55.4,57,30.11,10.0,WNW,4.6,-,N/A,,Clear,300,2013-07-31 03:36:00
7:56 PM,71.6,55.4,57,30.11,10.0,NW,3.5,-,N/A,,Clear,320,2013-07-31 03:56:00
8:36 PM,71.6,53.6,53,30.12,10.0,WSW,5.8,-,N/A,,Clear,250,2013-07-31 04:36:00
8:56 PM,71.6,53.6,53,30.12,10.0,SW,4.6,-,N/A,,Clear,230,2013-07-31 04:56:00
9:16 PM,69.8,53.6,56,30.13,10.0,SW,4.6,-,N/A,,Clear,220,2013-07-31 05:16:00
9:36 PM,68.0,53.6,60,30.13,10.0,Calm,Calm,-,N/A,,Clear,0,2013-07-31 05:36:00
9:56 PM,69.8,53.6,56,30.14,10.0,WSW,5.8,-,N/A,,Clear,250,2013-07-31 05:56:00
10:16 PM,69.8,53.6,56,30.15,10.0,West,5.8,-,N/A,,Clear,260,2013-07-31 06:16:00
10:56 PM,66.2,53.6,64,30.15,10.0,SW,4.6,-,N/A,,Clear,230,2013-07-31 06:56:00
11:16 PM,64.4,53.6,68,30.15,10.0,WSW,3.5,-,N/A,,Clear,240,2013-07-31 07:16:00
11:36 PM,62.6,53.6,72,30.15,10.0,Calm,Calm,-,N/A,,Clear,0,2013-07-31 07:36:00
11:56 PM,60.8,53.6,77,30.15,10.0,SSE,3.5,-,N/A,,Clear,150,2013-07-31 07:56:00